Retour au catalogue

ERS 2 DEB

ActifSSO
NORAD 31137·DEBRIS·🇪🇺 EU

Lancé Apr 21, 1995 depuis Guiana Space Centre

Loading…

Prochains Passages (prochaines 24 heures)

TLE

FraisSource: Space-Track

Époque: Sep 14, 2026, 12:34 UTC

1 31137U 95021D   26257.52420830  .00001297  00000-0  32282-3 0  9997
2 31137  98.6406 276.6519 0004620 139.5537  13.7419 14.53445489185276

Suivez ERS 2 DEB en temps réel avec AllMySat

Download on the App Store